SCP
0 0 0 0 0 0 0 0 0 0 0 0 0 0 0 0 0 0 0 0 0 -0 0 0 0 0 -0 -0 0 -0 0 0 0 0 0 0 0 0 0 0 0 0 0
0 0 0 0 0 0 0 0 0 0 0 0 0 0 0 0 0 0 0 0 0 0 0 0 0 0 -0 -0 0 -0 0 0 0 0 0 0 0 0 0 0 0 0 0
0 0 0 0 0 0 0 0 0 0 0 0 0 0 0 0 0 0 0 0 0 0 0 0 0 0 -0 -0 -0 -0 0 0 0 0 0 0 0 0 0 0 0 0 0
0 0 0 0 0 0 0 0 0 0 0 0 0 0 0 0 0 0 0 0 0 0 0 0 0 0 -0 0 -0 -0 0 0 0 0 0 0 0 0 0 0 0 0 0
0 0 0 0 0 0 0 0 0 0 0 0 0 0 0 0 0 0 0 0 0 0 -0 -0 -0 0 0 0 0 -0 0 0 0 0 0 0 0 0 0 0 0 0 0
0 0 0 0 0 0 0 0 0 0 0 0 0 0 0 0 0 0 0 0 0 0 -0 -0 -0 -0 0 0 0 0 0 0 0 0 0 0 0 0 0 0 0 0 0
0 0 0 0 0 0 0 0 0 0 0 0 0 0 0 0 0 0 0 0 0 0 -0 -0 -0 -0 -0 -0 -0 0 0 0 0 0 0 0 0 0 0 0 0 0 0
0 0 0 0 0 0 0 0 0 0 0 0 0 0 0 0 0 -0 0 0 0 0 -0 -0 -0 -0 -0 -0 -0 0 0 0 0 0 0 0 0 0 0 0 0 0 0
0 0 0 0 0 0 0 0 0 0 0 0 0 0 0 0 0 0 0 0 0 0 0 0 -0 -0 0 0 0 0 0 0 0 0 0 0 0 0 0 0 0 0 0
0 0 0 0 0 0 0 0 0 0 0 0 0 0 0 0 0 0 0 0 -0 -0 0 0 0 -0 0 0 0 0 0 0 0 0 0 0 0 0 0 0 0 0 0
0 0 0 0 0 0 0 0 0 0 0 -0 -0 0 0 0 0 0 0 0 0 0 0 0 0 0 0 0 0 0 0 0 0 0 0 0 0 0 0 0 0 0 0
0 0 0 0 0 0 0 0 0 0 0 -0 -0 0 0 0 0 0 -0 0 0 0 0 0 0 0 0 0 0 0 0 0 0 0 0 0 0 0 0 0 0 0 0
0 0 0 0 0 0 0 0 0 0 -0 -0 -0 0 0 0 0 -0 -0 0 0 0 0 0 0 0 0 0 0 0 0 0 0 0 0 0 0 0 0 0 0 0 0
0 0 0 0 0 0 0 0 0 0 -0 -0 -0 -0 0 0 0 0 0 -0 0 0 0 0 0 0 0 0 0 0 0 0 0 0 0 0 0 0 0 0 0 0 0
0 0 0 0 0 0 0 0 -0 -0 -0 -0 -0 -0 0 0 0 -0 -0 0 0 0 0 0 0 0 0 0 0 0 0 0 0 0 0 0 0 0 0 0 0 0 0
0 0 0 0 0 0 0 0 -0 -0 -0 -0 -0 -0 -0 -0 -0 -0 -0 0 0 0 0 0 0 0 0 0 0 0 0 0 0 0 0 0 0 0 0 0 0 0 0
0 0 0 0 0 0 0 0 0 0 -0 -0 -0 0 0 -0 -0 -0 -0 0 0 0 0 0 0 0 0 0 0 0 0 0 0 0 0 0 0 0 0 0 0 0 0
0 0 0 0 0 0 0 0 0 -0 -0 0 -0 0 0 -0 -0 -0 -0 0 0 0 0 0 0 0 0 0 0 0 0 0 0 0 0 0 0 0 0 0 0 0 0
0 0 0 0 0 0 0 0 0 -0 -0 -0 -0 0 0 -0 -0 -0 -0 0 0 0 0 0 0 0 0 0 0 0 0 0 0 0 0 0 0 0 0 0 0 0 0
0 0 0 0 0 0 0 0 0 -0 -0 -0 -0 0 0 0 -0 0 0 0 0 0 0 0 0 0 0 0 0 0 0 0 0 0 0 0 0 0 0 0 0 0 0
0 0 0 0 0 0 0 0 0 -0 -0 -0 -0 -0 0 -0 0 0 0 0 0 0 0 0 0 0 0 0 0 0 0 0 0 0 0 0 0 0 0 0 0 0 0
0 0 0 0 0 0 0 0 0 -0 -0 0 0 0 -0 -0 -0 0 0 0 0 0 0 0 0 0 0 0 0 0 0 0 0 0 0 0 0 0 0 0 0 0 0
0 0 0 0 0 0 0 0 0 0 -0 0 0 0 0 0 -0 -0 -0 0 0 0 0 0 0 0 0 0 0 0 0 0 0 0 0 0 0 0 0 0 0 0 0
0 0 0 0 0 0 0 0 0 -0 -0 -0 0 0 0 0 -0 -0 -0 -0 0 0 0 0 0 0 0 0 0 0 0 0 0 0 0 0 0 0 0 0 0 0 0
0 0 0 0 0 0 0 -0 -0 -0 0 -0 -0 0 0 0 0 -0 -0 -0 0 0 0 0 0 0 0 0 0 0 0 0 0 0 0 0 0 0 0 0 0 0 0
0 0 0 0 0 0 0 0 -0 -0 0 0 -0 -0 0 0 0 -0 -0 -0 -0 0 0 0 0 0 0 0 0 0 0 0 0 0 0 0 0 0 0 0 0 0 0
Wind_Speed_500mb
63 67 72 78 82 87 90 90 90 95 100 104 104 100 91 84 81 71 81 80 81 89 76 57 74 82 67 83 76 88 108 121 94 87 106 112 107 115 145 134 122 108 101
64 70 74 81 85 87 91 91 91 96 99 100 99 94 89 85 76 76 75 70 73 85 83 57 75 76 69 72 70 90 102 110 87 108 113 116 127 124 133 128 118 110 111
66 72 77 80 86 91 93 92 93 97 99 98 92 89 81 77 73 70 72 69 70 80 87 68 53 65 69 73 83 83 93 105 102 124 111 131 134 133 135 132 126 118 110
66 72 78 84 88 92 92 94 96 96 97 94 89 83 74 75 70 68 65 68 65 72 87 80 62 55 73 73 71 93 103 68 107 123 124 130 130 146 138 128 127 120 118
66 74 81 85 87 91 92 93 96 96 94 89 83 78 71 69 67 60 59 58 66 67 82 89 80 71 68 74 67 78 72 75 118 114 115 122 120 136 126 141 136 128 119
68 74 79 84 86 89 92 94 96 96 93 88 81 78 77 71 63 59 59 66 70 72 74 86 89 83 74 71 79 77 78 76 128 121 114 118 124 136 111 140 127 122 112
67 73 79 81 84 88 90 92 94 95 96 92 82 76 72 68 65 62 61 63 70 72 78 86 92 88 79 78 77 71 65 67 150 146 136 138 140 145 146 132 130 139 125
66 70 75 80 83 86 88 89 93 95 93 90 84 74 72 65 63 64 66 64 70 73 77 79 93 95 91 84 74 58 43 92 134 138 136 140 136 146 155 164 157 133 114
65 70 74 77 81 84 84 87 91 93 93 89 79 73 67 64 60 65 64 68 67 70 70 73 77 98 95 80 75 60 64 69 116 124 128 127 115 115 154 130 143 131 114
63 68 71 72 75 79 80 86 88 88 88 85 80 69 65 62 61 61 53 60 67 71 64 76 73 83 92 84 81 69 57 54 127 117 118 124 121 118 154 149 146 143 119
57 63 66 68 70 74 79 79 86 86 88 86 82 76 68 67 62 57 57 58 64 64 66 62 65 67 81 88 76 69 64 35 117 124 115 112 118 120 144 145 150 163 142
55 58 61 63 66 70 75 80 82 82 85 83 80 75 79 77 60 63 56 46 49 51 61 58 58 49 42 60 63 70 60 28 111 123 110 114 119 132 144 154 160 157 159
52 55 59 62 65 68 74 77 81 80 80 79 77 78 88 75 90 67 47 50 43 36 40 72 48 40 40 56 62 62 54 36 97 115 116 119 120 117 135 143 147 134 143
48 53 59 63 66 66 71 69 74 74 79 78 79 83 84 87 83 82 81 70 51 37 35 40 59 45 54 61 60 58 48 49 100 123 116 115 114 121 133 137 143 132 136
45 51 55 59 63 66 63 71 66 62 60 67 74 79 87 83 79 74 73 75 67 50 41 30 33 53 60 57 59 58 44 64 99 107 113 113 117 123 129 134 133 132 128
43 48 53 57 61 63 68 67 64 61 55 51 58 65 79 63 70 70 71 60 43 34 25 27 25 39 50 56 63 63 50 79 102 100 114 120 125 124 126 130 129 129 124
39 44 48 52 56 60 64 71 81 74 70 68 60 68 76 66 68 70 66 37 26 10 19 27 33 39 48 50 59 58 65 91 105 107 114 127 123 119 126 128 130 128 116
33 37 44 47 49 51 56 62 69 79 89 89 86 80 84 72 69 71 67 28 21 24 20 2 12 28 41 47 53 53 75 92 105 109 111 116 117 127 123 128 137 133 121
28 34 38 41 43 46 50 55 62 69 77 85 87 94 98 93 84 78 75 79 72 62 51 32 18 11 19 37 51 60 85 91 104 108 112 115 123 125 127 132 139 137 134
26 32 35 37 39 44 49 55 59 66 72 80 86 89 93 96 104 102 95 91 85 79 76 61 43 32 19 8 36 62 83 97 100 108 115 121 123 124 124 127 129 136 143
21 26 30 33 37 43 48 52 58 61 66 71 76 79 72 90 94 95 95 96 95 90 88 82 68 57 45 19 9 38 67 82 103 105 116 118 120 120 121 124 131 135 137
18 23 27 31 35 39 44 47 52 57 61 65 68 71 75 83 89 91 91 92 94 93 92 93 85 77 70 52 26 12 34 64 79 83 99 116 118 118 118 117 116 122 126
15 20 23 27 31 35 38 43 49 53 57 60 62 67 73 77 80 85 87 87 91 95 96 100 99 88 83 76 59 36 15 26 55 76 83 95 107 111 111 111 114 112 117
11 15 20 24 28 33 36 41 45 48 52 56 58 60 64 68 71 74 78 83 86 90 95 100 103 99 92 85 80 64 43 17 15 38 59 70 82 89 94 97 102 108 110
9 13 17 21 25 30 34 37 42 45 49 53 55 56 55 57 62 65 68 73 78 84 89 94 100 104 95 92 86 81 64 44 25 16 32 48 56 66 74 81 88 92 98
5 9 14 18 22 26 30 35 39 43 46 49 51 52 53 52 54 58 61 64 69 74 81 86 91 98 100 92 87 86 82 66 47 36 28 26 37 47 56 65 68 71 77
Wind_Direction_500mb
322 324 324 325 325 325 325 324 323 322 321 318 315 311 304 294 292 285 282 273 264 255 255 262 261 266 263 256 262 248 249 252 208 190 191 193 183 178 173 177 175 182 187
322 324 325 326 326 326 326 327 326 323 321 318 314 309 301 296 290 288 285 276 265 255 250 262 263 267 264 254 266 245 244 258 221 180 182 184 186 175 173 174 175 179 184
324 325 327 328 328 328 328 328 326 325 322 318 312 307 303 298 289 285 283 277 268 254 249 254 260 269 267 256 254 248 247 261 201 183 174 182 180 177 177 177 175 182 191
325 327 329 330 329 328 329 329 328 326 323 320 314 307 301 295 289 287 283 277 270 259 248 247 248 259 268 262 262 241 244 221 184 182 174 174 178 183 179 177 179 183 185
328 329 331 330 329 330 331 330 330 328 325 321 313 309 305 299 292 287 289 283 268 261 253 249 248 250 263 267 270 261 262 282 182 173 174 173 175 177 176 180 178 180 183
329 330 330 330 331 332 333 333 331 329 327 323 320 316 310 304 294 283 277 276 274 265 257 252 248 253 257 270 267 257 249 276 182 176 173 173 173 176 175 175 175 175 179
328 329 330 333 333 334 335 334 333 332 332 328 319 311 307 303 299 289 281 273 270 267 259 254 249 249 251 261 265 257 270 240 191 185 181 182 182 184 182 176 176 178 178
327 329 330 333 335 335 336 336 336 337 332 327 323 321 314 307 303 296 286 276 270 265 258 254 252 249 248 255 264 261 294 201 200 199 199 189 194 193 192 188 184 178 179
329 331 333 336 336 336 338 341 341 336 336 332 323 320 318 311 315 306 297 284 274 264 254 249 252 250 250 256 264 270 257 207 205 205 205 204 199 200 193 182 183 176 179
332 334 335 337 339 338 343 346 340 342 339 336 334 332 326 323 319 312 316 299 279 274 266 252 250 253 249 254 257 263 258 216 191 193 204 205 201 201 198 200 196 181 178
333 335 338 341 340 344 348 347 346 344 342 342 338 339 331 322 314 318 318 331 298 271 265 259 256 257 251 245 252 257 249 216 196 198 197 198 197 197 201 202 199 193 187
338 340 342 342 347 350 351 352 350 349 346 338 337 329 330 336 329 318 319 321 337 271 266 261 261 261 249 246 252 253 243 225 198 195 192 190 193 192 196 197 198 198 203
341 343 346 350 354 355 357 357 354 354 349 340 335 331 334 336 327 332 327 319 313 300 288 268 260 251 244 252 254 253 235 229 190 187 189 195 201 204 193 195 200 193 196
342 348 352 353 356 358 0 5 0 357 352 341 338 336 337 330 336 341 329 314 303 280 262 259 256 250 244 251 255 250 238 218 191 199 202 197 196 194 197 203 197 190 198
349 353 356 356 358 358 7 7 6 2 351 342 341 343 337 335 336 328 323 316 309 309 285 255 252 241 242 248 245 240 240 213 194 192 188 189 195 197 195 198 197 195 199
350 357 358 359 -0 359 1 5 18 16 3 353 350 353 343 339 337 338 331 324 320 295 253 244 265 257 249 244 241 231 232 207 198 190 192 196 197 197 195 198 202 205 202
355 358 359 1 2 0 4 6 5 15 23 20 1 3 357 353 353 354 352 354 342 325 216 229 232 249 257 247 244 231 218 204 200 196 196 198 205 204 199 201 202 207 201
358 0 1 3 3 4 7 11 15 13 11 13 25 17 7 8 7 10 16 41 55 58 53 356 251 238 233 237 245 236 212 200 197 195 197 202 205 204 200 199 200 204 200
358 4 7 4 4 8 11 14 19 20 19 15 16 28 24 32 33 34 41 44 38 36 36 32 25 332 268 233 226 225 209 200 198 198 202 207 208 205 203 203 202 206 204
2 3 4 5 3 9 14 17 19 22 24 22 20 22 12 29 34 37 38 41 40 38 37 32 31 29 355 230 203 202 206 204 200 196 200 206 210 211 206 204 202 202 207
9 6 4 5 6 12 17 20 22 23 26 27 26 25 15 32 35 36 39 40 39 38 38 33 35 37 30 38 156 186 193 204 205 202 206 210 213 211 214 213 211 209 209
15 10 4 6 10 13 18 21 25 26 26 27 28 30 29 35 36 38 40 42 44 42 41 35 38 39 41 40 43 112 171 189 195 197 205 214 215 215 213 214 215 214 214
19 13 7 9 13 16 18 20 25 27 28 29 28 30 32 33 35 36 40 42 44 45 45 44 39 40 46 47 44 47 84 171 189 196 198 205 212 217 215 213 213 211 210
28 14 11 14 16 18 18 21 25 26 28 29 30 30 31 34 34 36 37 40 43 46 47 47 42 42 43 46 46 45 47 69 173 197 202 203 206 207 207 208 210 214 214
30 13 13 17 22 23 21 21 23 25 26 27 29 31 33 33 36 36 36 38 40 42 44 44 45 42 43 45 47 47 45 49 74 153 198 208 210 212 212 212 212 212 211
36 14 17 19 19 24 23 22 21 22 24 25 26 28 30 32 35 36 37 37 37 39 42 41 41 42 38 42 45 47 48 49 56 74 105 154 185 195 204 211 213 212 215
Wind_Speed_850mb
63 67 72 78 82 87 90 90 90 95 100 104 104 100 91 84 81 71 81 80 81 89 76 57 74 82 67 83 76 88 108 121 94 87 106 112 107 115 145 134 122 108 101
64 70 74 81 85 87 91 91 91 96 99 100 99 94 89 85 76 76 75 70 73 85 83 57 75 76 69 72 70 90 102 110 87 108 113 116 127 124 133 128 118 110 111
66 72 77 80 86 91 93 92 93 97 99 98 92 89 81 77 73 70 72 69 70 80 87 68 53 65 69 73 83 83 93 105 102 124 111 131 134 133 135 132 126 118 110
66 72 78 84 88 92 92 94 96 96 97 94 89 83 74 75 70 68 65 68 65 72 87 80 62 55 73 73 71 93 103 68 107 123 124 130 130 146 138 128 127 120 118
66 74 81 85 87 91 92 93 96 96 94 89 83 78 71 69 67 60 59 58 66 67 82 89 80 71 68 74 67 78 72 75 118 114 115 122 120 136 126 141 136 128 119
68 74 79 84 86 89 92 94 96 96 93 88 81 78 77 71 63 59 59 66 70 72 74 86 89 83 74 71 79 77 78 76 128 121 114 118 124 136 111 140 127 122 112
67 73 79 81 84 88 90 92 94 95 96 92 82 76 72 68 65 62 61 63 70 72 78 86 92 88 79 78 77 71 65 67 150 146 136 138 140 145 146 132 130 139 125
66 70 75 80 83 86 88 89 93 95 93 90 84 74 72 65 63 64 66 64 70 73 77 79 93 95 91 84 74 58 43 92 134 138 136 140 136 146 155 164 157 133 114
65 70 74 77 81 84 84 87 91 93 93 89 79 73 67 64 60 65 64 68 67 70 70 73 77 98 95 80 75 60 64 69 116 124 128 127 115 115 154 130 143 131 114
63 68 71 72 75 79 80 86 88 88 88 85 80 69 65 62 61 61 53 60 67 71 64 76 73 83 92 84 81 69 57 54 127 117 118 124 121 118 154 149 146 143 119
57 63 66 68 70 74 79 79 86 86 88 86 82 76 68 67 62 57 57 58 64 64 66 62 65 67 81 88 76 69 64 35 117 124 115 112 118 120 144 145 150 163 142
55 58 61 63 66 70 75 80 82 82 85 83 80 75 79 77 60 63 56 46 49 51 61 58 58 49 42 60 63 70 60 28 111 123 110 114 119 132 144 154 160 157 159
52 55 59 62 65 68 74 77 81 80 80 79 77 78 88 75 90 67 47 50 43 36 40 72 48 40 40 56 62 62 54 36 97 115 116 119 120 117 135 143 147 134 143
48 53 59 63 66 66 71 69 74 74 79 78 79 83 84 87 83 82 81 70 51 37 35 40 59 45 54 61 60 58 48 49 100 123 116 115 114 121 133 137 143 132 136
45 51 55 59 63 66 63 71 66 62 60 67 74 79 87 83 79 74 73 75 67 50 41 30 33 53 60 57 59 58 44 64 99 107 113 113 117 123 129 134 133 132 128
43 48 53 57 61 63 68 67 64 61 55 51 58 65 79 63 70 70 71 60 43 34 25 27 25 39 50 56 63 63 50 79 102 100 114 120 125 124 126 130 129 129 124
39 44 48 52 56 60 64 71 81 74 70 68 60 68 76 66 68 70 66 37 26 10 19 27 33 39 48 50 59 58 65 91 105 107 114 127 123 119 126 128 130 128 116
33 37 44 47 49 51 56 62 69 79 89 89 86 80 84 72 69 71 67 28 21 24 20 2 12 28 41 47 53 53 75 92 105 109 111 116 117 127 123 128 137 133 121
28 34 38 41 43 46 50 55 62 69 77 85 87 94 98 93 84 78 75 79 72 62 51 32 18 11 19 37 51 60 85 91 104 108 112 115 123 125 127 132 139 137 134
26 32 35 37 39 44 49 55 59 66 72 80 86 89 93 96 104 102 95 91 85 79 76 61 43 32 19 8 36 62 83 97 100 108 115 121 123 124 124 127 129 136 143
21 26 30 33 37 43 48 52 58 61 66 71 76 79 72 90 94 95 95 96 95 90 88 82 68 57 45 19 9 38 67 82 103 105 116 118 120 120 121 124 131 135 137
18 23 27 31 35 39 44 47 52 57 61 65 68 71 75 83 89 91 91 92 94 93 92 93 85 77 70 52 26 12 34 64 79 83 99 116 118 118 118 117 116 122 126
15 20 23 27 31 35 38 43 49 53 57 60 62 67 73 77 80 85 87 87 91 95 96 100 99 88 83 76 59 36 15 26 55 76 83 95 107 111 111 111 114 112 117
11 15 20 24 28 33 36 41 45 48 52 56 58 60 64 68 71 74 78 83 86 90 95 100 103 99 92 85 80 64 43 17 15 38 59 70 82 89 94 97 102 108 110
9 13 17 21 25 30 34 37 42 45 49 53 55 56 55 57 62 65 68 73 78 84 89 94 100 104 95 92 86 81 64 44 25 16 32 48 56 66 74 81 88 92 98
5 9 14 18 22 26 30 35 39 43 46 49 51 52 53 52 54 58 61 64 69 74 81 86 91 98 100 92 87 86 82 66 47 36 28 26 37 47 56 65 68 71 77
Wind_Direction_850mb
322 324 324 325 325 325 325 324 323 322 321 318 315 311 304 294 292 285 282 273 264 255 255 262 261 266 263 256 262 248 249 252 208 190 191 193 183 178 173 177 175 182 187
322 324 325 326 326 326 326 327 326 323 321 318 314 309 301 296 290 288 285 276 265 255 250 262 263 267 264 254 266 245 244 258 221 180 182 184 186 175 173 174 175 179 184
324 325 327 328 328 328 328 328 326 325 322 318 312 307 303 298 289 285 283 277 268 254 249 254 260 269 267 256 254 248 247 261 201 183 174 182 180 177 177 177 175 182 191
325 327 329 330 329 328 329 329 328 326 323 320 314 307 301 295 289 287 283 277 270 259 248 247 248 259 268 262 262 241 244 221 184 182 174 174 178 183 179 177 179 183 185
328 329 331 330 329 330 331 330 330 328 325 321 313 309 305 299 292 287 289 283 268 261 253 249 248 250 263 267 270 261 262 282 182 173 174 173 175 177 176 180 178 180 183
329 330 330 330 331 332 333 333 331 329 327 323 320 316 310 304 294 283 277 276 274 265 257 252 248 253 257 270 267 257 249 276 182 176 173 173 173 176 175 175 175 175 179
328 329 330 333 333 334 335 334 333 332 332 328 319 311 307 303 299 289 281 273 270 267 259 254 249 249 251 261 265 257 270 240 191 185 181 182 182 184 182 176 176 178 178
327 329 330 333 335 335 336 336 336 337 332 327 323 321 314 307 303 296 286 276 270 265 258 254 252 249 248 255 264 261 294 201 200 199 199 189 194 193 192 188 184 178 179
329 331 333 336 336 336 338 341 341 336 336 332 323 320 318 311 315 306 297 284 274 264 254 249 252 250 250 256 264 270 257 207 205 205 205 204 199 200 193 182 183 176 179
332 334 335 337 339 338 343 346 340 342 339 336 334 332 326 323 319 312 316 299 279 274 266 252 250 253 249 254 257 263 258 216 191 193 204 205 201 201 198 200 196 181 178
333 335 338 341 340 344 348 347 346 344 342 342 338 339 331 322 314 318 318 331 298 271 265 259 256 257 251 245 252 257 249 216 196 198 197 198 197 197 201 202 199 193 187
338 340 342 342 347 350 351 352 350 349 346 338 337 329 330 336 329 318 319 321 337 271 266 261 261 261 249 246 252 253 243 225 198 195 192 190 193 192 196 197 198 198 203
341 343 346 350 354 355 357 357 354 354 349 340 335 331 334 336 327 332 327 319 313 300 288 268 260 251 244 252 254 253 235 229 190 187 189 195 201 204 193 195 200 193 196
342 348 352 353 356 358 0 5 0 357 352 341 338 336 337 330 336 341 329 314 303 280 262 259 256 250 244 251 255 250 238 218 191 199 202 197 196 194 197 203 197 190 198
349 353 356 356 358 358 7 7 6 2 351 342 341 343 337 335 336 328 323 316 309 309 285 255 252 241 242 248 245 240 240 213 194 192 188 189 195 197 195 198 197 195 199
350 357 358 359 -0 359 1 5 18 16 3 353 350 353 343 339 337 338 331 324 320 295 253 244 265 257 249 244 241 231 232 207 198 190 192 196 197 197 195 198 202 205 202
355 358 359 1 2 0 4 6 5 15 23 20 1 3 357 353 353 354 352 354 342 325 216 229 232 249 257 247 244 231 218 204 200 196 196 198 205 204 199 201 202 207 201
358 0 1 3 3 4 7 11 15 13 11 13 25 17 7 8 7 10 16 41 55 58 53 356 251 238 233 237 245 236 212 200 197 195 197 202 205 204 200 199 200 204 200
358 4 7 4 4 8 11 14 19 20 19 15 16 28 24 32 33 34 41 44 38 36 36 32 25 332 268 233 226 225 209 200 198 198 202 207 208 205 203 203 202 206 204
2 3 4 5 3 9 14 17 19 22 24 22 20 22 12 29 34 37 38 41 40 38 37 32 31 29 355 230 203 202 206 204 200 196 200 206 210 211 206 204 202 202 207
9 6 4 5 6 12 17 20 22 23 26 27 26 25 15 32 35 36 39 40 39 38 38 33 35 37 30 38 156 186 193 204 205 202 206 210 213 211 214 213 211 209 209
15 10 4 6 10 13 18 21 25 26 26 27 28 30 29 35 36 38 40 42 44 42 41 35 38 39 41 40 43 112 171 189 195 197 205 214 215 215 213 214 215 214 214
19 13 7 9 13 16 18 20 25 27 28 29 28 30 32 33 35 36 40 42 44 45 45 44 39 40 46 47 44 47 84 171 189 196 198 205 212 217 215 213 213 211 210
28 14 11 14 16 18 18 21 25 26 28 29 30 30 31 34 34 36 37 40 43 46 47 47 42 42 43 46 46 45 47 69 173 197 202 203 206 207 207 208 210 214 214
30 13 13 17 22 23 21 21 23 25 26 27 29 31 33 33 36 36 36 38 40 42 44 44 45 42 43 45 47 47 45 49 74 153 198 208 210 212 212 212 212 212 211
36 14 17 19 19 24 23 22 21 22 24 25 26 28 30 32 35 36 37 37 37 39 42 41 41 42 38 42 45 47 48 49 56 74 105 154 185 195 204 211 213 212 215